(°C)
10°
11°
11°
12°
(°C)
NE
ENE
NE
شمال
NE
NE
ENE
(كم/سا)
3-13
4-14
5-15
5-15
6-16
7-17
7-19
(مم)
0
0
0
0
0
0
1.5
(%)
20
7
7
21
39
39
71

Sun elevation

/ 35.3°
sun-icon
UV 1
05:33
19:38
هلال الصباح (59°)
08:02
00:27

METAR for 52.17°شمال 20.97°شرق (EPWA)

الوقت Conditions درجة الحرارة/
نقطة الندى
رياح مجال رؤية حالة الطقس غيوم الضغط Change Raw
LIFR 7°C / 7°C 330º 3kt 640m. Runway 33: Visual range is 800m. Fog Overcast 200ft 1017 Temporary: Visibility 0800. EPWA 170730Z 33003KT 0650 0550SE R33/0800N FG OVC002 07/07 Q1017 TEMPO 0800
LIFR 7°C / 7°C 340º 3kt 500m. Runway 33: Visual range is 700m. Fog Overcast 200ft 1017 Temporary: Visibility 0800. EPWA 170700Z 34003KT 0500 0450NW R33/0700N FG OVC002 07/07 Q1017 TEMPO 0800
LIFR 6°C / 6°C 300º variable 270º to 330º 3kt 600m. Runway 33: Visual range is 800m. Fog Overcast 200ft 1017 No Significant change EPWA 170630Z 30003KT 270V330 0600 R33/0800N FG OVC002 06/06 Q1017 NOSIG
LIFR 6°C / 6°C 290º 3kt 760m. Runway 33: Visual range is 800m and decreasing. Fog Overcast 200ft 1017 No Significant change EPWA 170600Z 29003KT 0750 R33/0800D FG OVC002 06/06 Q1017 NOSIG
LIFR 6°C / 6°C 290º 3kt 2400m Light Drizzle Mist Overcast 200ft 1017 Temporary: Visibility 1500. EPWA 170530Z 29003KT 2400 -DZ BR OVC002 06/06 Q1017 TEMPO 1500
LIFR 6°C / 5°C 300º variable 290º to 350º 4kt 3200m Light Drizzle Mist Overcast 200ft 1016 Temporary: Visibility 2500. Mist . EPWA 170500Z 30004KT 290V350 3200 -DZ BR OVC002 06/05 Q1016 TEMPO 2500 BR
LIFR 5°C / 5°C 300º 5kt 3200m Light Drizzle Mist Overcast 200ft 1016 Temporary: Visibility 2500. Mist . EPWA 170430Z 30005KT 3200 -DZ BR OVC002 05/05 Q1016 TEMPO 2500 BR
LIFR 5°C / 5°C 290º 4kt 3200m Light Drizzle Mist Overcast 300ft 1016 Temporary: Visibility 2500. Mist . EPWA 170400Z 29004KT 3200 -DZ BR OVC003 05/05 Q1016 TEMPO 2500 BR
LIFR 5°C / 5°C 290º 5kt 4500m Light Drizzle Mist Overcast 300ft 1016 Temporary: Visibility 2500. Mist . EPWA 170330Z 29005KT 4500 -DZ BR OVC003 05/05 Q1016 TEMPO 2500 BR
LIFR 5°C / 5°C 290º 6kt 3400m Light Drizzle Mist Overcast 400ft 1016 Temporary: Visibility 2500. Mist . EPWA 170300Z 29006KT 3400 -DZ BR OVC004 05/05 Q1016 TEMPO 2500 BR
LIFR 5°C / 5°C 280º 5kt 7000m Light Drizzle Overcast 400ft 1016 No Significant change EPWA 170230Z 28005KT 7000 -DZ OVC004 05/05 Q1016 NOSIG
LIFR 5°C / 5°C 290º 6kt 7000m Light Drizzle Overcast 400ft 1016 No Significant change EPWA 170200Z 29006KT 7000 -DZ OVC004 05/05 Q1016 NOSIG
LIFR 5°C / 5°C 290º 6kt 7000m Light Drizzle Overcast 400ft 1016 No Significant change EPWA 170130Z 29006KT 7000 -DZ OVC004 05/05 Q1016 NOSIG
LIFR 6°C / 5°C 300º 8kt 7000m - Broken Clouds 400ft 1016 No Significant change EPWA 170100Z 30008KT 7000 BKN004 06/05 Q1016 NOSIG
LIFR 6°C / 6°C 290º 7kt 6000m - Broken Clouds 300ft 1016 Temporary: Visibility 4000. Mist . EPWA 170030Z 29007KT 6000 BKN003 06/06 Q1016 TEMPO 4000 BR
LIFR 6°C / 6°C 290º 6kt 5000m Light Rain Mist Broken Clouds 300ft 1016 Temporary: Visibility 3000. Mist . Overcast 200ft. EPWA 170000Z 29006KT 5000 -RA BR BKN003 06/06 Q1016 TEMPO 3000 BR OVC002
LIFR 6°C / 6°C 300º 6kt 3200m Light Rain Mist Broken Clouds 300ft 1016 Temporary: Visibility 2500. Mist . Overcast 200ft. EPWA 162330Z 30006KT 3200 -RA BR BKN003 06/06 Q1016 TEMPO 2500 BR OVC002
LIFR 6°C / 6°C 300º 6kt 4500m Light Rain Mist Broken Clouds 400ft 1016 Temporary: Visibility 2500. Mist . EPWA 162300Z 30006KT 4500 -RA BR BKN004 06/06 Q1016 TEMPO 2500 BR
LIFR 6°C / 6°C 310º 6kt 2800m Light Drizzle Mist Overcast 300ft 1016 Temporary: Visibility 1400. Mist . Overcast 200ft. EPWA 162230Z 31006KT 2800 -DZ BR OVC003 06/06 Q1016 TEMPO 1400 BR OVC002
LIFR 6°C / 5°C 310º 6kt 6000m Light Rain Broken Clouds 400ft 1016 Temporary: Visibility 4000. Mist . EPWA 162200Z 31006KT 6000 -RA BKN004 06/05 Q1016 TEMPO 4000 BR
LIFR 6°C / 5°C 300º 5kt 6000m - Overcast 400ft 1016 No Significant change EPWA 162130Z 30005KT 6000 OVC004 06/05 Q1016 NOSIG
LIFR 6°C / 6°C 320º 4kt 5000m Mist Overcast 300ft 1016 Temporary: Visibility 4000. Mist . Overcast 200ft. EPWA 162100Z 32004KT 5000 BR OVC003 06/06 Q1016 TEMPO 4000 BR OVC002
LIFR 6°C / 6°C 310º 4kt 4000m Mist Overcast 200ft 1016 No Significant change EPWA 162030Z 31004KT 4000 BR OVC002 06/06 Q1016 NOSIG
LIFR 6°C / 6°C 320º 5kt 5000m Mist Overcast 300ft 1016 Temporary: Visibility 4000. Mist . EPWA 162000Z 32005KT 5000 BR OVC003 06/06 Q1016 TEMPO 4000 BR

LIFR

7°C / 7°C

[أكثر]
رياح 330º 3kt
مجال رؤية 640m. Runway 33: Visual range is 800m.
حالة الطقس Fog
غيوم Overcast 200ft
الضغط 1017
Change Temporary: Visibility 0800.
Raw EPWA 170730Z 33003KT 0650 0550SE R33/0800N FG OVC002 07/07 Q1017 TEMPO 0800

LIFR

7°C / 7°C

[أكثر]
رياح 340º 3kt
مجال رؤية 500m. Runway 33: Visual range is 700m.
حالة الطقس Fog
غيوم Overcast 200ft
الضغط 1017
Change Temporary: Visibility 0800.
Raw EPWA 170700Z 34003KT 0500 0450NW R33/0700N FG OVC002 07/07 Q1017 TEMPO 0800

LIFR

6°C / 6°C

[أكثر]
رياح 300º variable 270º to 330º 3kt
مجال رؤية 600m. Runway 33: Visual range is 800m.
حالة الطقس Fog
غيوم Overcast 200ft
الضغط 1017
Change No Significant change
Raw EPWA 170630Z 30003KT 270V330 0600 R33/0800N FG OVC002 06/06 Q1017 NOSIG

LIFR

6°C / 6°C

[أكثر]
رياح 290º 3kt
مجال رؤية 760m. Runway 33: Visual range is 800m and decreasing.
حالة الطقس Fog
غيوم Overcast 200ft
الضغط 1017
Change No Significant change
Raw EPWA 170600Z 29003KT 0750 R33/0800D FG OVC002 06/06 Q1017 NOSIG

LIFR

6°C / 6°C

[أكثر]
رياح 290º 3kt
مجال رؤية 2400m
حالة الطقس Light Drizzle Mist
غيوم Overcast 200ft
الضغط 1017
Change Temporary: Visibility 1500.
Raw EPWA 170530Z 29003KT 2400 -DZ BR OVC002 06/06 Q1017 TEMPO 1500

LIFR

6°C / 5°C

[أكثر]
رياح 300º variable 290º to 350º 4kt
مجال رؤية 3200m
حالة الطقس Light Drizzle Mist
غيوم Overcast 200ft
الضغط 1016
Change Temporary: Visibility 2500. Mist .
Raw EPWA 170500Z 30004KT 290V350 3200 -DZ BR OVC002 06/05 Q1016 TEMPO 2500 BR

LIFR

5°C / 5°C

[أكثر]
رياح 300º 5kt
مجال رؤية 3200m
حالة الطقس Light Drizzle Mist
غيوم Overcast 200ft
الضغط 1016
Change Temporary: Visibility 2500. Mist .
Raw EPWA 170430Z 30005KT 3200 -DZ BR OVC002 05/05 Q1016 TEMPO 2500 BR

LIFR

5°C / 5°C

[أكثر]
رياح 290º 4kt
مجال رؤية 3200m
حالة الطقس Light Drizzle Mist
غيوم Overcast 300ft
الضغط 1016
Change Temporary: Visibility 2500. Mist .
Raw EPWA 170400Z 29004KT 3200 -DZ BR OVC003 05/05 Q1016 TEMPO 2500 BR

LIFR

5°C / 5°C

[أكثر]
رياح 290º 5kt
مجال رؤية 4500m
حالة الطقس Light Drizzle Mist
غيوم Overcast 300ft
الضغط 1016
Change Temporary: Visibility 2500. Mist .
Raw EPWA 170330Z 29005KT 4500 -DZ BR OVC003 05/05 Q1016 TEMPO 2500 BR

LIFR

5°C / 5°C

[أكثر]
رياح 290º 6kt
مجال رؤية 3400m
حالة الطقس Light Drizzle Mist
غيوم Overcast 400ft
الضغط 1016
Change Temporary: Visibility 2500. Mist .
Raw EPWA 170300Z 29006KT 3400 -DZ BR OVC004 05/05 Q1016 TEMPO 2500 BR

LIFR

5°C / 5°C

[أكثر]
رياح 280º 5kt
مجال رؤية 7000m
حالة الطقس Light Drizzle
غيوم Overcast 400ft
الضغط 1016
Change No Significant change
Raw EPWA 170230Z 28005KT 7000 -DZ OVC004 05/05 Q1016 NOSIG

LIFR

5°C / 5°C

[أكثر]
رياح 290º 6kt
مجال رؤية 7000m
حالة الطقس Light Drizzle
غيوم Overcast 400ft
الضغط 1016
Change No Significant change
Raw EPWA 170200Z 29006KT 7000 -DZ OVC004 05/05 Q1016 NOSIG

LIFR

5°C / 5°C

[أكثر]
رياح 290º 6kt
مجال رؤية 7000m
حالة الطقس Light Drizzle
غيوم Overcast 400ft
الضغط 1016
Change No Significant change
Raw EPWA 170130Z 29006KT 7000 -DZ OVC004 05/05 Q1016 NOSIG

LIFR

6°C / 5°C

[أكثر]
رياح 300º 8kt
مجال رؤية 7000m
حالة الطقس -
غيوم Broken Clouds 400ft
الضغط 1016
Change No Significant change
Raw EPWA 170100Z 30008KT 7000 BKN004 06/05 Q1016 NOSIG

LIFR

6°C / 6°C

[أكثر]
رياح 290º 7kt
مجال رؤية 6000m
حالة الطقس -
غيوم Broken Clouds 300ft
الضغط 1016
Change Temporary: Visibility 4000. Mist .
Raw EPWA 170030Z 29007KT 6000 BKN003 06/06 Q1016 TEMPO 4000 BR

LIFR

6°C / 6°C

[أكثر]
رياح 290º 6kt
مجال رؤية 5000m
حالة الطقس Light Rain Mist
غيوم Broken Clouds 300ft
الضغط 1016
Change Temporary: Visibility 3000. Mist . Overcast 200ft.
Raw EPWA 170000Z 29006KT 5000 -RA BR BKN003 06/06 Q1016 TEMPO 3000 BR OVC002

LIFR

6°C / 6°C

[أكثر]
رياح 300º 6kt
مجال رؤية 3200m
حالة الطقس Light Rain Mist
غيوم Broken Clouds 300ft
الضغط 1016
Change Temporary: Visibility 2500. Mist . Overcast 200ft.
Raw EPWA 162330Z 30006KT 3200 -RA BR BKN003 06/06 Q1016 TEMPO 2500 BR OVC002

LIFR

6°C / 6°C

[أكثر]
رياح 300º 6kt
مجال رؤية 4500m
حالة الطقس Light Rain Mist
غيوم Broken Clouds 400ft
الضغط 1016
Change Temporary: Visibility 2500. Mist .
Raw EPWA 162300Z 30006KT 4500 -RA BR BKN004 06/06 Q1016 TEMPO 2500 BR

LIFR

6°C / 6°C

[أكثر]
رياح 310º 6kt
مجال رؤية 2800m
حالة الطقس Light Drizzle Mist
غيوم Overcast 300ft
الضغط 1016
Change Temporary: Visibility 1400. Mist . Overcast 200ft.
Raw EPWA 162230Z 31006KT 2800 -DZ BR OVC003 06/06 Q1016 TEMPO 1400 BR OVC002

LIFR

6°C / 5°C

[أكثر]
رياح 310º 6kt
مجال رؤية 6000m
حالة الطقس Light Rain
غيوم Broken Clouds 400ft
الضغط 1016
Change Temporary: Visibility 4000. Mist .
Raw EPWA 162200Z 31006KT 6000 -RA BKN004 06/05 Q1016 TEMPO 4000 BR

LIFR

6°C / 5°C

[أكثر]
رياح 300º 5kt
مجال رؤية 6000m
حالة الطقس -
غيوم Overcast 400ft
الضغط 1016
Change No Significant change
Raw EPWA 162130Z 30005KT 6000 OVC004 06/05 Q1016 NOSIG

LIFR

6°C / 6°C

[أكثر]
رياح 320º 4kt
مجال رؤية 5000m
حالة الطقس Mist
غيوم Overcast 300ft
الضغط 1016
Change Temporary: Visibility 4000. Mist . Overcast 200ft.
Raw EPWA 162100Z 32004KT 5000 BR OVC003 06/06 Q1016 TEMPO 4000 BR OVC002

LIFR

6°C / 6°C

[أكثر]
رياح 310º 4kt
مجال رؤية 4000m
حالة الطقس Mist
غيوم Overcast 200ft
الضغط 1016
Change No Significant change
Raw EPWA 162030Z 31004KT 4000 BR OVC002 06/06 Q1016 NOSIG

LIFR

6°C / 6°C

[أكثر]
رياح 320º 5kt
مجال رؤية 5000m
حالة الطقس Mist
غيوم Overcast 300ft
الضغط 1016
Change Temporary: Visibility 4000. Mist .
Raw EPWA 162000Z 32005KT 5000 BR OVC003 06/06 Q1016 TEMPO 4000 BR

TAF for 52.17°شمال 20.97°شرق (EPWA)

From till


From till Wind 300º 5kt. Visibility 1200m. Light Drizzle Mist . Overcast 200ft.
Temporarly from till Visibility 804.670m. Fog .
Becoming from till Wind 300º 5kt. Visibility 4000m. Mist . Broken Clouds 500ft.
Becoming from till Wind 300º 5kt. Visibility 8000m. Mist . Broken Clouds 1700ft.
Temporarly from till Light Showers Rain . Broken Clouds 1800ft.
With 40% probability, Temporarly from till Visibility 3000m. Thunderstorm Rain . Broken Clouds 1200ft.
Becoming from till Wind 300º 5kt. Visibility 4000m. Mist . Broken Clouds 1700ft.
Temporarly from till Visibility 2000m. Mist . Broken Clouds 500ft.

Raw: TAF AMD EPWA 170642Z 1706/1806 30005KT 1200 -DZ BR OVC002 TEMPO 1706/1708 0800 FG BECMG 1708/1710 4000 BR BKN005 BECMG 1710/1712 8000 BKN017 TEMPO 1712/1720 -SHRA BKN018CB PROB40 TEMPO 1713/1718 3000 TSRA BKN012CB BECMG 1719/1722 4000 BR TEMPO 1720/1804 2000 BR BKN005

Current satellite and rain images for 52.17°شمال 20.97°شرق

  • هطول:
  • <1 مم
  • 1-2 مم
  • 2-5 مم
  • >5 مم

المؤشر يدل على موقع 52.17°شمال 20.97°شرق. [أكثر]

The real-time satellite image combines visible light during daytime with infrared radiation during nighttime. At night, the image is not dark as infrared radiation can detect temperature differences. Unfortunately, low clouds and fog are difficult to distinguish from ground temperatures and thus can be almost invisible during the night. Meteosat satellite images for Europe are updated in real-time every 5 minutes. GOES-16/GOES-17 (North & South America) and Himawari (Asia) images update every 10 minutes.

يقدر هطول الأمطار من الرادار والأقمار الصناعية. تقديرات هطول الأمطار ليلا من قبل الأقمار الصناعية هي أقل دقة من النهار. اللون البرتقالي يعبر الأماكن حيث تم الكشف عن البرق (أكثر من أوروبا).

حقوق النسخ 2021 EUMETSAT / meteoblue. بيانات البرق مقدمة من nowcast.